Flag for India Weather past 2 weeks in Jaipur, Rajasthan, India

Now
86 °F

Partly sunny.


Feels Like: 84 °F
Forecast: 80 / 98 °F
Wind: 10 mph from East

Location: Jaipur / Sanganer


UV Index: 7 (High)

Visibility: 2 mi


Pressure: 29.89 "Hg

Humidity: 33%

Dew point: 54 °F

Location of JaipurLocation

Historic Weather in Jaipur

°F

Jaipur temperature yesterday

Maximum temperature yesterday: 100 °F (at 4:00 PM)
Minimum temperature yesterday: 77 °F (at 6:30 AM)
Average temperature yesterday: 90 °F

Past Weeks' High & Low Weather Summary

 TemperatureHumidityPressure
High100 °F (Apr 13, 2:00 PM)69% (Apr 8, 5:00 AM)29.98 "Hg (Apr 8, 5:00 AM)
Low70 °F (Apr 4, 5:00 AM)6% (Apr 12, 2:00 PM)29.71 "Hg (Apr 1, 5:00 PM)
Average86 °F24%29.86 "Hg
* Reported Apr 1 9:00 AM — Apr 16 9:00 AM, Jaipur, Weather by CustomWeather, © 2014

Note: Actual official high and low records may vary slightly from our data, if they occured in-between our weather recording intervals... More about our weather records

Advertising

Historic Weather Conditions — Data for Previous 24 hours

 ConditionsComfort  
Time TempWeatherWind HumidityBarometerVisibility
9:00 AM
Apr 16
81 °FScattered clouds.21 mph32%29.95 "Hg1 mi
8:00 AM84 °FScattered clouds.3 mph31%29.86 "Hg2 mi
7:00 AM81 °FScattered clouds.5 mph32%29.83 "Hg2 mi
6:00 AM81 °FPassing clouds.5 mph32%29.83 "Hg2 mi
4:00 AM81 °FHaze.3 mph30%29.83 "Hg2 mi
3:00 AM81 °FHaze.No wind28%29.83 "Hg2 mi
2:00 AM81 °FHaze.No wind32%29.86 "Hg2 mi
1:00 AM84 °FHaze.2 mph25%29.86 "Hg2 mi
12:00 AM84 °FHaze.2 mph22%29.86 "Hg2 mi
11:00 PM
Apr 15
86 °FHaze.2 mph19%29.86 "Hg2 mi
10:00 PM90 °FHaze.3 mph18%29.86 "Hg2 mi
9:00 PM91 °FPassing clouds.3 mph15%29.86 "Hg2 mi
8:00 PM93 °FPassing clouds.5 mph13%29.83 "Hg2 mi
7:00 PM95 °FScattered clouds.5 mph9%29.83 "Hg2 mi
6:00 PM99 °FScattered clouds.8 mph8%29.80 "Hg2 mi
4:00 PM100 °FScattered clouds.6 mph13%29.80 "Hg2 mi
3:00 PM99 °FScattered clouds.7 mph15%29.83 "Hg2 mi
2:00 PM99 °FScattered clouds.6 mph14%29.86 "Hg2 mi
12:00 PM95 °FHaze.2 mph20%29.92 "Hg2 mi
Weather by CustomWeather, © 2014

See weather overview